Regional Weather Roundup
Issued by NWS

Home | Current Version | Previous Version | Graphics & Text | Print | Product List | Glossary On
Versions: 1 2 3 4 5 6 7 8 9 10 11 12 13 14 15 16 17 18 19 20 21 22 23 24 25 26 27 28 29 30 31 32 33 34 35 36 37 38 39 40 41 42 43 44 45 46 47 48 49 50
000
ASUS44 KMEG 290600
RWRTN
TENNESSEE HOURLY STATE WEATHER ROUNDUP
NATIONAL WEATHER SERVICE MEMPHIS TN
1200 AM CST MON DEC 29 2014

TNZ002-004-019-021-049-052-054-088>092-290700-
WEST TENNESSEE

CITY           SKY/WX    TMP DP  RH WIND       PRES   REMARKS
MEMPHIS INTL   CLOUDY    38  35  89 N5        30.17S WCI  34
NWS MEMPHIS      N/A     37 N/A N/A MISG        N/A
JACKSON        CLOUDY    38  35  89 N5        30.17F WCI  34
DYERSBURG      CLOUDY    36  23  60 NE6       30.20S WCI  31
UNION CITY     CLOUDY    34  32  93 N8        30.19S WCI  27
PARIS          CLOUDY    32  28  86 NE6       30.19R WCI  26
LEXINGTON      CLOUDY    36  36 100 VRB5      30.15S WCI  32
SAVANNAH       CLOUDY    39  39 100 NE5       30.15S
$$

TNZ008-025-027-028-033-062-065-066-290700-
NORTH MIDDLE TENNESSEE

CITY           SKY/WX    TMP DP  RH WIND       PRES   REMARKS
NASHVILLE      CLOUDY    37  36  96 N6        30.17S WCI  32
CLARKSVILLE    CLOUDY    35  32  88 NE7       30.18F WCI  29
CROSSVILLE     CLOUDY    43  40  89 CALM      30.09R
$$

TNZ061-075-076-078-094-096-097-290700-
SOUTH MIDDLE TENNESSEE

CITY           SKY/WX    TMP DP  RH WIND       PRES   REMARKS
TULLAHOMA      CLOUDY    39  39 100 N3        30.11F
WINCHESTER     CLOUDY    41  41 100 CALM      30.12S
SHELBYVILLE    CLOUDY    39  39 100 N5        30.13S
$$

TNZ017-018-042-046-047-290700-
NORTHEAST TENNESSEE

CITY           SKY/WX    TMP DP  RH WIND       PRES   REMARKS
TRI CITIES     LGT RAIN  48  47  96 CALM      30.08F VSB 1/2
ELIZABETHTON   LGT RAIN  46  46 100 CALM      30.08S FOG
$$

TNZ012-013-036-069-073-074-290700-
CENTRAL EAST TENNESSEE

CITY           SKY/WX    TMP DP  RH WIND       PRES   REMARKS
KNOXVILLE      LGT RAIN  47  46  97 CALM      30.09F FOG
OAK RIDGE      LGT RAIN  46  45  96 CALM      30.10S
GATLINBURG     CLOUDY    46  46 100 CALM      30.07F
$$

TNZ083-085-099-290700-
SOUTHEAST TENNESSEE

CITY           SKY/WX    TMP DP  RH WIND       PRES   REMARKS
CHATTANOOGA    RAIN      50  48  93 CALM      30.10S
$$

SKY/WX REPORTED AS FAIR MEANS FEW OR NO CLOUDS BELOW
12 THOUSAND FEET.




USA.gov is the U.S. government's official web portal to all federal, state and local government web resources and services.